Flag for U.S.A. Weather past 2 weeks in Billings, Montana, U.S.A.

Now
70 °F

Partly cloudy.


Feels Like: 77 °F
Forecast: 65 / 78 °F
Wind: 8 mph from Southwest

Location: Billings Logan International Airport

Current Time: Aug 4, 2015 at 6:52:02 AM

Latest Report: Aug 4, 2015 at 5:53 AM


Visibility: 10 mi

Pressure: 29.79 "Hg (26.69 "Hg at 946m altitude)

Humidity: 44%

Dew point: 47 °F

Location of BillingsLocation

Historic Weather in Billings — Graph

°F

Billings temperature yesterday

Maximum temperature yesterday: 92 °F (at 5:53 PM)
Minimum temperature yesterday: 62 °F (at 4:53 AM)
Average temperature yesterday: 77 °F

Past Weeks' High & Low Weather Summary

 TemperatureHumidityPressure
High98 °F (Aug 1, 3:53 PM)90% (Jul 27, 4:53 PM)30.22 "Hg (Jul 27, 4:53 PM)
Low53 °F (Jul 27, 11:53 PM)7% (Aug 1, 1:53 PM)29.61 "Hg (Jul 22, 3:53 PM)
Average74 °F37%29.91 "Hg
* Reported Jul 20 5:53 AM — Aug 4 5:53 AM, Billings, Weather by CustomWeather, © 2015

Note: Actual official high and low records may vary slightly from our data, if they occured in-between our weather recording intervals... More about our weather records

Advertising

Billings weather history for previous 24 hours

 ConditionsComfort  
Time TempWeatherWind HumidityBarometerVisibility
5:53 AM
Tue, Aug 4
70 °FPartly cloudy.8 mph44%29.79 "Hg10 mi
4:53 AM70 °FPassing clouds.8 mph44%29.78 "Hg10 mi
3:53 AM71 °FPassing clouds.9 mph42%29.76 "Hg10 mi
2:53 AM75 °FPassing clouds.13 mph36%29.74 "Hg10 mi
1:53 AM77 °FPassing clouds.9 mph33%29.75 "Hg10 mi
12:53 AM77 °FPassing clouds.10 mph33%29.76 "Hg10 mi
11:53 PM
Mon, Aug 3
77 °FPassing clouds.12 mph33%29.77 "Hg10 mi
10:53 PM80 °FPassing clouds.14 mph29%29.78 "Hg10 mi
9:53 PM81 °FPartly cloudy.6 mph30%29.78 "Hg10 mi
8:53 PM83 °FMostly cloudy.13 mph30%29.76 "Hg10 mi
7:53 PM87 °FBroken clouds.12 mph26%29.75 "Hg10 mi
6:53 PM90 °FBroken clouds.10 mph22%29.74 "Hg10 mi
5:53 PM92 °FBroken clouds.10 mph21%29.74 "Hg10 mi
4:53 PM91 °FPartly sunny.14 mph22%29.76 "Hg10 mi
3:53 PM90 °FPartly sunny.14 mph21%29.79 "Hg10 mi
2:53 PM90 °FPartly sunny.12 mph22%29.81 "Hg10 mi
1:53 PM90 °FPartly sunny.14 mph23%29.83 "Hg10 mi
12:53 PM83 °FPartly sunny.8 mph32%29.86 "Hg10 mi
11:53 AM78 °FPartly sunny.6 mph36%29.89 "Hg10 mi
10:53 AM74 °FPartly sunny.5 mph40%29.90 "Hg10 mi
9:53 AM73 °FPartly sunny.5 mph41%29.91 "Hg10 mi
8:53 AM68 °FScattered clouds.7 mph47%29.92 "Hg10 mi
7:53 AM66 °FScattered clouds.3 mph49%29.92 "Hg10 mi
6:53 AM63 °FPassing clouds.6 mph54%29.92 "Hg10 mi
Weather by CustomWeather, © 2015

See weather overviewHow to use our weather pages